Retour au catalogue

STARLINK-32371

ActifCommunicationsVLEO
NORAD 60916·PAYLOAD·🇺🇸 United States

Lancé Aug 31, 2024 depuis Cape Canaveral Space Force Station

Loading…

Prochains Passages (prochaines 24 heures)

TLE

FraisSource: CelesTrak SupGP

Époque: Sep 14, 2026, 14:04 UTC

1 60916C 24154P   26257.58659722  .00047613  00000+0  15310-2 0  2573
2 60916  53.1561 125.2572 0001240  95.4756 225.4500 15.31680245    16

Suivez STARLINK-32371 en temps réel avec AllMySat

Download on the App Store